• In Germany
  • List of Countries
  • For 7 days
  • Water Temperature
  • Satellite Maps
  • Weather Map
  • Weather Widgets
  • user-avatar
    Login

    Hourly Weather Kanye

    Today, 16 November, Friday

    Time Temperature Precipitation Wind Pressure Humidity
    00:00 +27°C° 0 mm 3 mps 653 mmHg 25%
    01:00 +27°C° 0 mm 4 mps 653 mmHg 25%
    02:00 +26°C° 0 mm 4 mps 652 mmHg 25%
    03:00 +25°C° 0 mm 3 mps 652 mmHg 26%
    04:00 +24°C° 0 mm 3 mps 652 mmHg 27%
    05:00 +22°C° 0 mm 3 mps 652 mmHg 28%
    06:00 +25°C° 0 mm 3 mps 653 mmHg 27%
    07:00 +26°C° 0 mm 3 mps 654 mmHg 26%
    08:00 +28°C° 0 mm 4 mps 655 mmHg 26%
    09:00 +30°C° 0 mm 4 mps 655 mmHg 23%
    10:00 +33°C° 0 mm 4 mps 655 mmHg 21%
    11:00 +35°C° 0 mm 3 mps 656 mmHg 18%
    12:00 +36°C° 0 mm 3 mps 655 mmHg 17%
    13:00 +37°C° 0 mm 3 mps 655 mmHg 15%
    14:00 +38°C° 0 mm 3 mps 655 mmHg 13%
    15:00 +38°C° 0 mm 3 mps 654 mmHg 13%
    16:00 +37°C° 0 mm 3 mps 654 mmHg 13%
    17:00 +37°C° 0 mm 3 mps 653 mmHg 13%
    18:00 +35°C° 0.2 mm 3 mps 653 mmHg 16%
    19:00 +33°C° 0.2 mm 3 mps 653 mmHg 18%
    20:00 +30°C° 0.2 mm 2 mps 652 mmHg 21%
    21:00 +29°C° 0 mm 3 mps 653 mmHg 22%
    22:00 +28°C° 0 mm 3 mps 653 mmHg 22%
    23:00 +28°C° 0 mm 3 mps 653 mmHg 23%

    Tomorrow, 17 November, Saturday

    Time Temperature Precipitation Wind Pressure Humidity
    00:00 +27°C° 0 mm 3 mps 653 mmHg 25%
    01:00 +26°C° 0 mm 3 mps 653 mmHg 26%
    02:00 +25°C° 0 mm 3 mps 652 mmHg 28%
    03:00 +24°C° 0 mm 3 mps 652 mmHg 30%
    04:00 +24°C° 0 mm 2 mps 652 mmHg 31%
    05:00 +23°C° 0 mm 2 mps 652 mmHg 33%
    06:00 +25°C° 0 mm 3 mps 653 mmHg 31%
    07:00 +27°C° 0 mm 4 mps 654 mmHg 29%
    08:00 +28°C° 0 mm 4 mps 655 mmHg 26%
    09:00 +30°C° 0 mm 4 mps 655 mmHg 23%
    10:00 +33°C° 0 mm 3 mps 655 mmHg 20%
    11:00 +35°C° 0 mm 3 mps 655 mmHg 17%
    12:00 +36°C° 0 mm 2 mps 655 mmHg 15%
    13:00 +38°C° 0 mm 2 mps 654 mmHg 14%
    14:00 +39°C° 0 mm 1 mps 654 mmHg 12%
    15:00 +39°C° 0 mm 1 mps 653 mmHg 12%
    16:00 +37°C° 0 mm 1 mps 652 mmHg 12%
    17:00 +37°C° 0 mm 1 mps 652 mmHg 12%
    18:00 +35°C° 0.1 mm 1 mps 652 mmHg 14%
    19:00 +33°C° 0.1 mm 1 mps 652 mmHg 15%
    20:00 +32°C° 0.1 mm 2 mps 651 mmHg 17%
    21:00 +31°C° 0 mm 2 mps 652 mmHg 18%
    22:00 +30°C° 0 mm 2 mps 652 mmHg 20%
    23:00 +29°C° 0 mm 2 mps 652 mmHg 21%

    Day after tomorrow, 18 November, Sunday

    Time Temperature Precipitation Wind Pressure Humidity
    00:00 +29°C° 0 mm 3 mps 652 mmHg 23%
    01:00 +28°C° 0 mm 3 mps 651 mmHg 24%
    02:00 +27°C° 0 mm 3 mps 651 mmHg 26%
    03:00 +26°C° 0 mm 3 mps 651 mmHg 27%
    04:00 +26°C° 0 mm 3 mps 651 mmHg 29%
    05:00 +25°C° 0 mm 2 mps 651 mmHg 31%
    06:00 +27°C° 0 mm 4 mps 652 mmHg 28%
    07:00 +28°C° 0 mm 5 mps 653 mmHg 24%
    08:00 +30°C° 0 mm 6 mps 653 mmHg 21%
    09:00 +33°C° 0 mm 6 mps 654 mmHg 19%
    10:00 +35°C° 0 mm 6 mps 654 mmHg 17%
    11:00 +38°C° 0 mm 6 mps 654 mmHg 14%
    12:00 +37°C° 0 mm 5 mps 654 mmHg 13%
    13:00 +38°C° 0 mm 4 mps 653 mmHg 12%
    14:00 +38°C° 0 mm 3 mps 652 mmHg 11%
    15:00 +38°C° 0 mm 3 mps 652 mmHg 11%
    16:00 +38°C° 0 mm 3 mps 651 mmHg 11%
    17:00 +38°C° 0 mm 3 mps 651 mmHg 11%
    18:00 +36°C° 0 mm 2 mps 651 mmHg 12%
    19:00 +34°C° 0 mm 2 mps 651 mmHg 14%
    20:00 +32°C° 0 mm 1 mps 651 mmHg 15%
    21:00 +31°C° 0.1 mm 3 mps 651 mmHg 17%
    22:00 +32°C° 0.1 mm 4 mps 651 mmHg 19%
    23:00 +30°C° 0.1 mm 5 mps 652 mmHg 21%

    19 November, Monday

    Time Temperature Precipitation Wind Pressure Humidity
    00:00 +29°C° 0 mm 6 mps 652 mmHg 25%
    01:00 +28°C° 0 mm 7 mps 651 mmHg 29%
    02:00 +27°C° 0 mm 8 mps 651 mmHg 33%
    03:00 +26°C° 0 mm 8 mps 651 mmHg 41%
    04:00 +24°C° 0 mm 8 mps 651 mmHg 48%
    05:00 +23°C° 0 mm 8 mps 651 mmHg 55%
    06:00 +24°C° 0 mm 9 mps 652 mmHg 51%
    07:00 +26°C° 0 mm 9 mps 652 mmHg 47%
    08:00 +27°C° 0 mm 10 mps 653 mmHg 43%
    09:00 +29°C° 0 mm 10 mps 653 mmHg 38%
    10:00 +32°C° 0 mm 10 mps 653 mmHg 34%
    11:00 +34°C° 0 mm 10 mps 654 mmHg 29%
    12:00 +35°C° 0 mm 9 mps 653 mmHg 27%
    13:00 +37°C° 0 mm 8 mps 652 mmHg 24%
    14:00 +38°C° 0 mm 8 mps 652 mmHg 21%
    15:00 +38°C° 0 mm 7 mps 651 mmHg 21%
    16:00 +36°C° 0 mm 6 mps 650 mmHg 21%
    17:00 +36°C° 0 mm 6 mps 650 mmHg 21%
    18:00 +35°C° 0 mm 5 mps 650 mmHg 23%
    19:00 +33°C° 0 mm 5 mps 650 mmHg 25%
    20:00 +32°C° 0 mm 5 mps 650 mmHg 27%
    21:00 +30°C° 0.1 mm 5 mps 650 mmHg 30%
    22:00 +29°C° 0.1 mm 6 mps 650 mmHg 34%
    23:00 +28°C° 0.1 mm 6 mps 651 mmHg 37%

    20 November, Tuesday

    Time Temperature Precipitation Wind Pressure Humidity
    00:00 +27°C° 1.1 mm 6 mps 650 mmHg 43%
    01:00 +26°C° 1.1 mm 5 mps 650 mmHg 49%
    02:00 +25°C° 1.1 mm 4 mps 650 mmHg 56%
    03:00 +23°C° 0.3 mm 6 mps 650 mmHg 59%
    04:00 +22°C° 0.3 mm 7 mps 650 mmHg 62%
    05:00 +22°C° 0.3 mm 8 mps 650 mmHg 66%
    06:00 +22°C° 0 mm 8 mps 650 mmHg 63%
    07:00 +23°C° 0 mm 9 mps 651 mmHg 60%
    08:00 +24°C° 0 mm 9 mps 651 mmHg 56%
    09:00 +27°C° 0 mm 9 mps 651 mmHg 50%
    10:00 +29°C° 0 mm 8 mps 652 mmHg 43%
    11:00 +32°C° 0 mm 8 mps 652 mmHg 36%
    12:00 +33°C° 0 mm 8 mps 652 mmHg 32%
    13:00 +35°C° 0 mm 7 mps 651 mmHg 28%
    14:00 +36°C° 0 mm 7 mps 651 mmHg 24%
    15:00 +36°C° 0 mm 6 mps 650 mmHg 23%
    16:00 +36°C° 0 mm 5 mps 650 mmHg 22%
    17:00 +36°C° 0 mm 4 mps 649 mmHg 20%
    18:00 +34°C° 0.2 mm 4 mps 649 mmHg 24%
    19:00 +33°C° 0.2 mm 3 mps 649 mmHg 27%
    20:00 +30°C° 0.2 mm 3 mps 649 mmHg 31%
    21:00 +29°C° 0 mm 3 mps 649 mmHg 32%
    22:00 +29°C° 0 mm 3 mps 649 mmHg 33%
    23:00 +28°C° 0 mm 3 mps 649 mmHg 35%

    21 November, Wednesday

    Time Temperature Precipitation Wind Pressure Humidity
    00:00 +27°C° 0 mm 3 mps 649 mmHg 38%
    01:00 +26°C° 0 mm 3 mps 648 mmHg 41%
    02:00 +25°C° 0 mm 3 mps 648 mmHg 45%
    03:00 +24°C° 0 mm 3 mps 648 mmHg 51%
    04:00 +24°C° 0 mm 3 mps 648 mmHg 57%
    05:00 +22°C° 0 mm 3 mps 648 mmHg 63%
    06:00 +24°C° 0 mm 3 mps 649 mmHg 58%
    07:00 +26°C° 0 mm 3 mps 649 mmHg 52%
    08:00 +27°C° 0 mm 3 mps 650 mmHg 47%
    09:00 +28°C° 0 mm 4 mps 650 mmHg 42%
    10:00 +30°C° 0 mm 4 mps 650 mmHg 38%
    11:00 +32°C° 0 mm 5 mps 651 mmHg 33%
    12:00 +34°C° 0.1 mm 5 mps 650 mmHg 29%
    13:00 +35°C° 0.1 mm 5 mps 650 mmHg 26%
    14:00 +36°C° 0.1 mm 5 mps 650 mmHg 22%
    15:00 +34°C° 0.5 mm 6 mps 649 mmHg 27%
    16:00 +33°C° 0.5 mm 6 mps 648 mmHg 32%
    17:00 +30°C° 0.5 mm 6 mps 648 mmHg 37%
    18:00 +28°C° 3 mm 6 mps 648 mmHg 46%
    19:00 +26°C° 3 mm 6 mps 648 mmHg 55%
    20:00 +23°C° 3 mm 6 mps 648 mmHg 64%
    21:00 +23°C° 0.7 mm 6 mps 648 mmHg 63%
    22:00 +23°C° 0.7 mm 6 mps 649 mmHg 61%
    23:00 +23°C° 0.7 mm 6 mps 649 mmHg 60%
    Show more